Regional Weather Roundup
Issued by NWS Jackson, KY

Home | Current Version | Previous Version | Graphics & Text | Print | Product List | Glossary On
Versions: 1 2 3 4 5 6 7 8 9 10 11 12 13 14 15 16 17 18 19 20 21 22 23 24 25 26 27 28 29 30 31 32 33 34 35 36 37 38 39 40 41 42 43 44 45 46 47 48 49 50
000
ASUS43 KJKL 231210
RWRJKL

EAST KENTUCKY HOURLY WEATHER ROUNDUP
NATIONAL WEATHER SERVICE JACKSON KY
700 AM EST MON JAN 23 2017

NOTE: "FAIR" INDICATES FEW OR NO CLOUDS BELOW 12,000 FEET WITH
NO SIGNIFICANT WEATHER AND/OR OBSTRUCTIONS TO VISIBILITY.

* THESE REPORTS ARE NOT UNDER NWS QUALITY CONTROL AND MAY NOT
  REPORT WEATHER SUCH AS PRECIPITATION AND FOG.

KYZ079-080-083-085-087-088-110-112-115-119-120-231300
...EASTERN KENTUCKY...

CITY           SKY/WX    TMP DP  RH WIND       PRES   REMARKS
JACKSON        LGT RAIN  51  49  92 VRB6      29.30R
6HR MIN TEMP:  51; 6HR MAX TEMP:  53; 6HR PCP:  0.41;

LONDON         LGT RAIN  52  49  89 N12       29.30R
6HR MIN TEMP:  52; 6HR MAX TEMP:  54; 6HR PCP:  0.41;

SOMERSET*      RAIN      52  52 100 N10G18    29.34R
MONTICELLO*    LGT RAIN  53  51  93 N17       29.35R
6HR MIN TEMP:  53; 6HR MAX TEMP:  54; 6HR PCP:  0.36;

WILLIAMSBURG*  CLOUDY    50  50 100 N9        29.29R
MIDDLESBORO*   DRIZZLE   50  50 100 CALM      29.26R
6HR MIN TEMP:  50; 6HR MAX TEMP:  53; 6HR PCP:  0.45;

HARLAN APT*    CLOUDY    52  46  82 N3        29.26R
PIKE CO APT*   RAIN      50  50 100 N9G18     29.27S
BIG SANDY APT* RAIN      51  51 100 N9G16     29.30R
6HR MIN TEMP:  51; 6HR MAX TEMP:  52;

MOREHEAD APT*  RAIN      52  50  93 N8        29.36R
ASHLAND*       CLOUDY    52  48  87 NE8       29.34R
$$

KYZ035-036-041-042-044-050-067-078-099-231300
...CENTRAL KENTUCKY...

CITY           SKY/WX    TMP DP  RH WIND       PRES   REMARKS
MT STERLING*   RAIN      52  50  93 NE8       29.37R
FLEMING/MASON* RAIN      51  50  98 N9G16     29.40R
DANVILLE*      RAIN      50  50 100 N16G22    29.38R
LEXINGTON      RAIN      52  49  89 N14G23    29.38R FOG
6HR MIN TEMP:  52; 6HR MAX TEMP:  54; 6HR PCP:  0.32;

FRANKFORT      LGT RAIN  51  47  86 N14G22    29.40R
6HR MIN TEMP:  51; 6HR MAX TEMP:  57; 6HR PCP:  0.27;

LOUISVILLE     CLOUDY    53  47  79 N21       29.45R
6HR MIN TEMP:  53; 6HR MAX TEMP:  58; 6HR PCP: TRACE;

LEBANON*       RAIN      50  50 100 NW14G23   29.40R
GLASGOW*       DRIZZLE   52  49  90 NW15G22   29.42R
BOWLING GREEN  CLOUDY    51  46  83 NW15G26   29.47R
6HR MIN TEMP:  51; 6HR MAX TEMP:  59; 6HR PCP: TRACE;

$$

KYZ091>093-OHZ055-061-077-WVZ005-015-034-035-042-231300
...SOUTHERN OHIO/WEST VIRGINIA...

CITY           SKY/WX    TMP DP  RH WIND       PRES   REMARKS
COVINGTON      LGT RAIN  48  46  93 N16G23    29.45R FOG
COLUMBUS       LGT RAIN  53  47  79 NE9       29.44R
DAYTON         LGT RAIN  42  40  92 N15       29.50R
WILMINGTON     LGT RAIN  47  47 100 N15       29.44R FOG
HUNTINGTON     LGT RAIN  51  48  89 N8        29.33R
CHARLESTON     LGT RAIN  51  47  86 N9        29.30S
BECKLEY        RAIN      47  43  86 E9G22     29.27S
BLUEFIELD      RAIN      44  42  93 E12G23    29.26R FOG
LOGAN CO APT*  LGT RAIN  50  50 100 CALM      29.27S
$$

VAZ002-007-008-TNZ017-027-036-066-071-231300
...SOUTHWEST VIRGINIA/EAST TENNESSEE...

CITY           SKY/WX    TMP DP  RH WIND       PRES   REMARKS
WISE*          RAIN      46  46 100 NE12      29.25R
JONESVILLE*    CLOUDY    52  48  87 NE7       29.26R
ABINGDON*      RAIN      49  47  92 E14G23    29.21R
BRISTOL        RAIN      50  48  93 NE7       29.20R FOG
MORRISTOWN*    CLOUDY    50  50 100 W7        29.22R
SEVIERVILLE*   CLOUDY    48  46  93 W7        29.23R
KNOXVILLE      LGT RAIN  49  46  90 W7        29.24R
LAFOLLETTE*    CLOUDY    50  50 100 CALM      29.28R FOG
OAK RIDGE      CLOUDY    50  47  89 CALM      29.26R
CROSSVILLE     CLOUDY    51  48  89 N17G30    29.30R
NASHVILLE      CLOUDY    51  45  79 NW24G35   29.46R
$$

...KEY TO REMARKS...
VSB - VISIBILITY IN MILES
WCI - WIND CHILL INDEX
HX  - HEAT INDEX

$$



USA.gov is the U.S. government's official web portal to all federal, state and local government web resources and services.